Probability
0 0 0 0 0 0 0 0 0 0 0 0 0 0 0 0 0 0 0 0 0 0 0 0 0 0 0 0 0 0 0 0 0 0 0 0 0 0 0 0 0 0 0
0 0 0 0 0 0 0 0 0 0 0 0 0 0 0 0 0 0 0 0 0 0 0 0 0 0 0 0 0 0 0 0 0 0 0 0 0 0 0 0 0 0 0
0 0 0 0 0 0 0 0 0 0 0 0 0 0 0 0 0 0 0 0 0 0 0 0 0 0 0 0 0 0 0 0 0 0 0 0 0 0 0 0 0 0 0
0 0 0 0 0 0 0 0 0 0 0 0 0 0 0 0 0 0 0 0 0 0 0 0 0 0 0 0 0 0 0 0 0 0 0 0 0 0 0 0 0 0 0
0 0 0 0 0 0 0 0 0 0 0 0 0 0 0 0 0 0 0 0 0 0 0 0 0 0 0 0 0 0 0 0 0 0 0 0 0 0 0 0 0 0 0
0 0 0 0 0 0 0 0 0 0 0 0 0 0 0 0 0 0 0 0 0 0 0 0 0 0 0 0 0 0 0 0 0 0 0 0 0 0 0 0 0 0 0
0 0 0 0 0 0 0 0 0 0 0 0 0 0 0 0 0 0 0 0 0 0 0 0 0 0 0 0 0 0 0 0 0 0 0 0 0 0 0 0 0 0 0
0 0 0 0 0 0 0 0 0 0 0 0 0 0 0 0 0 0 0 0 0 0 0 0 0 0 0 0 0 0 0 0 0 0 0 0 0 0 0 0 0 0 0
0 0 0 0 0 0 0 0 0 0 0 0 0 0 0 0 0 0 0 0 0 0 0 0 0 0 0 0 0 0 0 0 0 0 0 0 0 0 0 0 0 0 0
0 0 0 0 0 0 0 0 0 0 0 0 0 0 0 0 0 0 0 0 0 0 0 0 0 0 0 0 0 0 0 0 0 0 0 0 0 0 0 0 0 0 0
0 0 0 0 0 0 0 0 0 0 0 0 0 0 0 0 0 0 0 0 0 0 0 0 0 0 0 0 0 0 0 0 0 0 0 0 0 0 0 0 0 0 0
0 0 0 0 0 0 0 0 0 0 0 0 0 0 0 0 0 0 0 0 0 0 0 0 0 0 0 0 0 0 0 0 0 0 0 0 0 0 0 0 0 0 0
0 0 0 0 0 0 0 0 0 0 0 0 0 0 0 0 0 0 0 0 0 0 0 0 0 0 0 0 0 0 0 0 0 0 0 0 0 0 0 0 0 0 0
0 0 0 0 0 0 0 0 0 0 0 0 0 0 0 0 0 0 0 0 0 0 0 0 0 0 0 0 0 0 0 0 0 0 0 0 0 0 0 0 0 0 0
0 0 0 0 0 0 0 0 0 0 0 0 0 0 0 0 0 0 0 0 0 0 0 0 0 0 0 0 0 0 0 0 0 0 0 0 0 0 0 0 0 0 0
0 0 0 0 0 0 0 0 0 0 0 0 0 0 0 0 0 0 0 0 0 0 0 0 0 0 0 0 0 0 0 0 0 0 0 0 0 0 0 0 0 0 0
0 0 0 0 0 0 0 0 0 0 0 0 0 0 0 0 0 0 0 0 0 0 0 0 0 0 0 0 0 0 0 0 0 0 0 0 0 0 0 0 0 0 0
0 0 0 0 0 0 0 0 0 0 0 0 0 0 0 0 0 0 0 0 0 0 0 0 0 0 0 0 0 0 0 0 0 0 0 0 0 0 0 0 0 0 0
0 0 0 0 0 0 0 0 0 0 0 0 0 0 0 0 0 0 0 0 0 0 0 0 0 0 0 0 0 0 0 0 0 0 0 0 0 0 0 0 0 0 0
0 0 0 0 0 0 0 0 0 0 0 0 0 0 0 0 0 0 0 0 0 0 0 0 0 0 0 0 0 0 0 0 0 0 0 0 0 0 0 0 0 0 0
0 0 0 0 0 0 0 0 0 0 0 0 0 0 0 0 0 0 0 0 0 0 0 0 0 0 0 0 0 0 0 0 0 0 0 0 0 0 0 0 0 0 0
0 0 0 0 0 0 0 0 0 0 0 0 0 0 0 0 0 0 0 0 0 0 0 0 0 0 0 0 0 0 0 0 0 0 0 0 0 0 0 0 0 0 0
0 0 0 0 0 0 0 0 0 0 0 0 0 0 0 0 0 0 0 0 0 0 0 0 0 0 0 0 0 0 0 0 0 0 0 0 0 0 0 0 0 0 0
0 0 0 0 0 0 0 0 0 0 0 0 0 0 0 0 0 0 0 0 0 0 0 0 0 0 0 0 0 0 0 0 0 0 0 0 0 0 0 0 0 0 0
0 0 0 0 0 0 0 0 0 0 0 0 0 0 0 0 0 0 0 0 0 0 0 0 0 0 0 0 0 0 0 0 0 0 0 0 0 0 0 0 0 0 0
0 0 0 0 0 0 0 0 0 0 0 0 0 0 0 0 0 0 0 0 0 0 0 0 0 0 0 0 0 0 0 0 0 0 0 0 0 0 0 0 0 0 0
Wind_Speed
3 2 2 2 1 1 1 1 2 2 2 3 3 3 3 3 3 2 0 2 1 3 6 8 9 9 10 10 11 12 12 13 13 13 14 14 14 14 14 14 14 14 14
3 2 2 2 1 1 0 0 2 2 2 2 3 4 4 3 3 3 1 1 1 1 4 6 8 9 10 11 11 12 12 13 14 14 14 14 14 14 14 15 15 15 15
3 3 2 1 1 1 0 1 2 2 2 2 3 4 3 4 3 3 2 1 1 1 1 4 6 8 10 11 12 12 12 13 14 14 15 15 15 15 15 16 16 16 16
4 2 2 1 2 1 1 1 1 2 2 2 3 3 3 4 4 2 2 2 1 1 0 2 4 7 9 10 12 13 13 14 14 15 15 16 16 16 17 17 17 17 17
4 3 2 2 2 2 1 0 1 1 2 3 3 4 4 3 2 2 2 1 1 0 0 1 3 5 8 10 12 13 14 14 15 16 16 16 17 17 18 18 18 18 18
4 4 3 3 3 2 1 0 1 1 1 2 4 5 4 3 2 1 1 1 1 1 1 1 1 3 7 11 13 14 15 15 16 16 16 17 18 18 18 19 19 19 19
5 4 3 3 3 2 1 1 2 2 2 2 3 4 4 3 0 1 1 2 2 2 2 2 1 1 3 9 12 15 15 16 16 17 17 18 18 19 19 19 19 19 20
5 4 4 3 3 2 2 2 2 1 2 2 2 2 4 5 3 2 1 1 2 2 3 3 3 3 2 2 7 13 15 16 17 18 18 18 19 19 20 20 20 20 21
6 5 4 4 4 3 2 2 2 2 1 1 2 2 1 2 4 4 3 2 2 2 3 3 4 4 3 3 3 8 14 16 17 18 19 19 20 20 20 20 21 21 21
6 5 5 5 4 3 3 2 3 2 2 0 1 1 1 1 1 4 5 3 4 4 4 4 4 4 4 3 5 11 14 15 18 19 20 21 21 21 21 21 21 21 22
6 6 5 5 4 3 4 3 2 1 1 1 0 0 1 1 2 2 5 5 4 3 4 5 4 4 4 3 3 7 13 16 18 20 20 21 21 22 22 22 22 22 22
4 6 6 5 4 4 4 3 3 2 1 1 1 1 1 1 2 2 4 5 6 4 5 5 5 4 4 3 5 10 14 16 18 20 20 21 21 22 22 22 22 23 23
4 6 5 5 4 4 4 4 3 2 2 2 2 2 2 2 2 2 3 5 5 5 4 4 3 3 3 2 3 11 12 17 19 20 21 21 21 22 22 22 23 23 23
6 7 7 6 5 5 5 4 3 3 2 3 3 3 2 3 2 2 3 3 6 5 4 5 4 4 3 3 6 11 7 17 20 21 21 22 22 22 22 22 23 23 24
6 8 7 6 6 6 5 4 3 3 3 3 3 3 3 3 3 3 3 3 4 6 6 4 3 3 4 4 9 6 5 15 21 22 22 22 22 22 22 22 23 23 24
8 8 7 7 6 6 5 4 3 3 3 3 3 4 4 4 4 4 4 4 4 6 8 4 4 6 7 7 13 8 7 20 20 22 23 23 23 23 23 23 23 24 24
9 9 8 7 6 6 5 4 4 4 5 4 4 5 6 5 4 4 4 4 5 5 10 9 5 5 6 7 8 6 7 7 8 21 24 24 24 24 23 23 23 24 24
8 8 7 7 6 6 5 5 5 5 5 5 5 5 6 5 5 5 4 5 6 6 8 13 7 5 6 7 7 8 8 8 7 18 23 24 24 24 24 24 24 24 24
8 7 7 7 6 6 5 5 5 4 5 5 5 5 6 6 6 5 6 6 5 6 6 8 9 5 5 6 7 8 9 7 9 14 19 20 22 23 24 24 24 24 24
8 7 7 6 6 5 5 5 4 4 4 5 5 6 6 7 8 7 7 7 6 6 6 7 9 7 6 6 6 7 8 5 7 9 13 16 19 22 22 23 24 24 24
7 7 6 5 5 5 5 6 5 5 5 6 6 7 8 10 13 12 9 7 6 6 6 7 9 9 7 6 6 6 9 7 7 7 7 7 8 7 9 16 21 23 23
7 6 6 6 6 5 8 10 7 5 5 6 7 7 8 10 14 19 20 18 14 9 7 7 8 10 10 8 7 7 8 9 8 4 5 6 6 7 7 7 16 23 22
6 6 6 6 6 6 10 11 11 6 6 6 7 7 8 8 13 8 13 18 15 18 18 12 10 10 10 9 9 9 8 10 10 6 6 8 5 7 7 10 20 22 22
6 5 5 6 5 7 10 11 11 7 6 7 7 8 8 8 8 10 8 7 7 8 11 9 9 10 11 10 10 11 12 11 9 6 6 8 6 6 8 6 16 20 19
5 5 5 5 5 6 9 10 10 4 5 7 7 7 8 8 14 18 11 8 8 8 13 19 20 19 22 23 18 9 7 8 9 5 3 4 4 5 5 6 9 15 17
4 4 4 4 5 5 8 10 10 4 5 6 6 6 11 13 17 19 10 7 10 9 8 10 12 14 13 14 19 10 6 7 8 6 2 2 3 3 5 4 3 6 9
Wind_Direction
175 177 186 178 196 176 173 260 293 327 333 346 338 325 314 314 311 317 160 190 234 324 330 331 334 335 338 340 340 340 337 334 332 332 331 328 326 323 320 317 314 309 304
168 173 190 180 180 151 147 323 325 349 336 337 323 310 306 317 320 328 318 179 176 329 337 339 341 342 342 340 339 337 335 333 331 329 327 325 322 320 317 316 315 312 308
168 165 171 157 150 128 52 10 341 341 318 324 325 325 335 327 327 326 350 32 112 117 350 347 346 342 340 338 336 335 334 331 329 327 324 323 322 319 316 314 311 309 307
159 161 158 152 122 93 64 26 337 346 338 351 340 331 323 315 319 333 346 353 54 85 64 329 338 336 335 335 335 333 331 328 326 324 322 320 318 315 313 311 309 307 304
165 155 148 138 119 107 90 11 31 37 357 351 328 309 301 298 303 322 329 21 62 53 8 267 301 313 322 329 330 330 328 326 325 323 321 319 317 314 312 309 308 306 303
159 147 141 133 117 113 96 61 47 34 17 358 325 307 288 269 259 301 342 360 332 316 0 339 307 309 321 324 327 326 325 326 324 323 321 319 317 314 311 309 306 304 302
149 141 135 127 119 122 126 82 63 25 9 12 351 325 311 289 149 85 16 3 347 348 341 321 328 341 325 327 326 323 323 324 323 323 321 319 317 314 312 309 307 304 302
144 139 137 134 126 113 94 82 77 41 9 38 40 358 345 343 357 347 330 329 345 351 340 337 340 328 317 317 316 321 321 321 322 321 321 319 317 315 312 310 309 307 305
141 139 140 131 128 123 122 109 98 91 46 4 60 93 51 312 320 315 320 334 353 338 319 316 311 310 314 313 309 317 316 319 320 320 320 319 317 314 312 311 309 308 306
143 142 139 132 130 124 125 122 105 106 106 40 356 64 174 195 291 313 314 325 339 319 309 309 307 300 297 295 301 311 313 316 318 318 318 318 316 314 313 312 311 309 308
145 143 140 135 134 132 131 123 117 115 118 141 147 330 317 309 226 233 286 303 314 301 310 302 291 285 285 281 281 295 309 315 315 315 315 315 314 314 313 312 311 310 307
147 149 143 142 144 139 135 134 136 146 160 172 191 200 200 224 256 255 274 295 298 291 296 281 278 274 268 264 275 299 307 310 312 311 311 311 311 310 309 309 308 307 305
157 162 151 154 152 145 143 144 154 175 187 194 214 231 227 227 231 243 268 285 291 295 291 284 279 287 284 284 290 304 303 307 308 307 308 309 308 306 306 306 306 305 304
161 158 157 158 154 151 153 158 170 191 193 201 224 232 235 244 239 235 242 275 297 294 282 281 302 291 306 308 296 305 299 305 306 306 307 306 305 304 303 303 303 303 302
152 153 155 158 159 161 164 167 183 201 198 208 219 232 237 241 238 238 235 224 245 285 290 277 284 304 318 303 299 298 289 303 307 308 307 306 305 304 303 302 302 301 300
147 152 159 163 165 168 172 178 189 203 206 218 217 229 241 241 241 237 234 234 226 246 272 266 272 290 297 301 303 307 300 307 308 307 305 304 304 304 303 302 301 300 299
153 159 165 167 171 176 180 186 198 203 214 228 231 234 242 241 243 242 240 240 242 243 269 277 266 280 290 295 300 297 295 293 296 303 303 302 302 303 302 302 302 301 300
158 162 165 169 176 182 186 193 207 211 218 230 238 243 251 253 251 248 245 247 249 247 263 280 283 278 279 284 285 287 294 296 292 298 299 300 301 303 304 303 303 302 301
160 162 165 174 182 186 192 201 207 216 224 234 241 246 253 255 258 255 252 253 255 261 259 276 286 282 280 282 287 287 284 285 288 293 297 298 299 302 303 304 305 304 303
162 167 171 177 183 187 195 205 209 219 235 245 249 250 253 251 254 255 257 255 257 263 266 275 283 286 282 280 281 287 290 277 281 288 289 292 294 299 301 303 304 304 302
165 166 170 179 186 191 201 203 209 220 233 247 253 252 254 256 260 265 266 258 252 258 265 273 280 286 286 287 282 282 290 288 275 273 276 279 286 284 291 296 299 297 296
165 168 178 185 195 207 215 219 218 220 231 242 254 258 261 266 271 275 278 278 274 271 272 271 279 282 285 282 282 283 287 291 291 258 266 280 283 284 283 279 291 297 300
169 177 185 190 203 216 223 232 235 233 235 244 253 262 270 271 279 271 277 281 281 281 281 280 279 279 282 282 281 281 275 276 280 278 284 284 273 276 280 291 299 303 303
174 181 190 197 207 222 228 238 243 239 240 248 253 258 264 268 267 275 267 263 258 266 273 277 269 271 273 273 265 272 276 279 276 270 264 278 278 275 286 286 298 302 308
180 187 190 198 211 229 233 242 247 235 244 252 255 260 267 269 279 287 285 278 276 271 280 282 282 285 286 290 291 288 286 290 291 282 250 260 279 289 282 279 292 309 319
181 183 197 205 213 229 241 247 249 236 247 256 258 260 272 281 288 291 286 278 280 278 275 279 280 285 287 286 290 285 277 281 287 288 263 273 285 308 300 279 292 311 313